STARLINK-1072 (44935 NORAD) Tracking and Keplerian Element Data

This shows tracking and keplerian element data for the satellite.

Feedback or suggestion? Click here.




ElementValue
Catalog44935
NameSTARLINK-1072
Epoch Orbit723
Epoch Day52.91667824
Epoch Year2020
RAAN168.887
Inclination52.9959
Eccentricity0.000157
Argument of Perigee18.256
Mean Anonmoly7.7512
Mean Motion15.73198106
Decay Rate0.0001002
L11 44935U 20001X 20052.91667824 .00010020 00000-0 75721-4 0 9999
L22 44935 52.9959 168.8870 0001570 18.2560 7.7512 15.73198106 7234

Live tracking and technical data element details for STARLINK-1072 (NORAD 44935). STARLINK-1072 can be tracked NOW for your location showing map with azimuth and elevation plus other details from your city location.

Track the satellite on the map from your city or location and see movement details for azimuth, elevation, latitude, longitude, range, height, and movement on the map or in text.







IsCatalogInMostPopularTable: catalog: 44935, numindb: 11
Update: records affected: 1



GetName: 44935 STARLINK-1072

Hit Count: updated at: Mon, 24 Feb 2020 17:06:30 GMT